Weather History for Buckeye, AZ

Change the Weather History Date:

Thursday, January 3, 2013

  Actual Average (KGYR) Record (KGYR)
Temperature  
Mean Temperature 47 °F -  
Max Temperature 62 °F 65 °F 77 °F (2003)
Min Temperature 32 °F 40 °F 33 °F (2011)
Degree Days  
Heating Degree Days 18    
Moisture  
Dew Point 10 °F    
Average Humidity 24    
Maximum Humidity 51    
Minimum Humidity 11    
Precipitation  
Precipitation 0.00 in - - ()
Sea Level Pressure  
Sea Level Pressure 30.11 in    
Wind  
Wind Speed 8 mph (North)    
Max Wind Speed 17 mph    
Max Gust Speed 22 mph    
Visibility 10 miles    
Events      
Averages and records for this station are not official NWS values.
T = Trace of Precipitation, MM = Missing Value Source: NWS Daily Summary

Daily Weather History Graph

Daily Weather History Graph

Search for Another Location

Airport:

Trip Planner

Search our weather history database for the weather conditions in past years. The results will help you decide how hot, cold, wet, or windy it might be!

Date:

Astronomy

Jan. 03, 2013 Rise Set
Actual Time 7:35 AM MST 5:35 PM MST
Civil Twilight 7:07 AM MST 6:03 PM MST
Nautical Twilight 6:36 AM MST 6:34 PM MST
Astronomical Twilight 6:06 AM MST 7:04 PM MST
Moon 11:53 PM MST (1/3) 11:08 AM MST (1/3)
Length of Visible Light 10h 55m
Length of Day
10h 00m
Waning Gibbous, 65% of the Moon is Illuminated
Jan 3
Waning Gibbous
Jan 4
Last Quarter
Jan 11
New
Jan 18
First Quarter
Jan 26
Full

Hourly Weather History & Observations

Time (MST) Temp. Windchill Dew Point Humidity Pressure Visibility Wind Dir Wind Speed Gust Speed Precip Events Conditions
12:15 AM 41.0 °F 37.1 °F 15.8 °F 36% 30.06 in 10.0 mi NNE 5.8 mph - N/A   Clear
12:35 AM 39.2 °F 35.9 °F 15.8 °F 39% 30.05 in 10.0 mi NNE 4.6 mph - N/A   Clear
12:55 AM 39.2 °F 35.9 °F 14.0 °F 36% 30.05 in 10.0 mi North 4.6 mph - N/A   Clear
1:15 AM 35.6 °F 32.8 °F 14.0 °F 41% 30.04 in 10.0 mi NNW 3.5 mph - N/A   Clear
1:35 AM 37.4 °F 34.9 °F 14.0 °F 38% 30.04 in 10.0 mi NNW 3.5 mph - N/A   Clear
1:55 AM 39.2 °F 35.9 °F 14.0 °F 36% 30.05 in 10.0 mi North 4.6 mph - N/A   Clear
2:15 AM 39.2 °F 34.2 °F 14.0 °F 36% 30.06 in 10.0 mi North 6.9 mph - N/A   Clear
2:35 AM 39.2 °F 33.6 °F 14.0 °F 36% 30.06 in 10.0 mi North 8.1 mph - N/A   Clear
2:55 AM 41.0 °F 35.8 °F 12.2 °F 31% 30.06 in 10.0 mi North 8.1 mph - N/A   Clear
3:15 AM 39.2 °F 34.2 °F 12.2 °F 33% 30.06 in 10.0 mi North 6.9 mph - N/A   Clear
3:35 AM 39.2 °F 34.2 °F 12.2 °F 33% 30.05 in 10.0 mi NNW 6.9 mph - N/A   Clear
3:55 AM 37.4 °F 32.1 °F 14.0 °F 38% 30.05 in 10.0 mi NNW 6.9 mph - N/A   Clear
4:15 AM 37.4 °F 31.4 °F 14.0 °F 38% 30.05 in 10.0 mi NW 8.1 mph - N/A   Clear
4:35 AM 37.4 °F - 14.0 °F 38% 30.05 in 10.0 mi Calm Calm - N/A   Clear
4:55 AM 35.6 °F - 14.0 °F 41% 30.05 in 10.0 mi Calm Calm - N/A   Clear
5:15 AM 32.0 °F 28.7 °F 14.0 °F 48% 30.05 in 10.0 mi WNW 3.5 mph - N/A   Clear
5:35 AM 32.0 °F 27.5 °F 15.8 °F 51% 30.06 in 10.0 mi West 4.6 mph - N/A   Clear
5:55 AM 33.8 °F 29.6 °F 14.0 °F 44% 30.07 in 10.0 mi NW 4.6 mph - N/A   Clear
6:15 AM 33.8 °F 29.6 °F 14.0 °F 44% 30.08 in 10.0 mi NW 4.6 mph - N/A   Clear
6:35 AM 33.8 °F 27.0 °F 14.0 °F 44% 30.08 in 10.0 mi NNW 8.1 mph - N/A   Clear
6:55 AM 35.6 °F 29.2 °F 14.0 °F 41% 30.08 in 10.0 mi NNW 8.1 mph - N/A   Clear
7:15 AM 37.4 °F 30.8 °F 10.4 °F 33% 30.09 in 10.0 mi North 9.2 mph - N/A   Clear
7:35 AM 37.4 °F 31.4 °F 10.4 °F 33% 30.10 in 10.0 mi NNW 8.1 mph - N/A   Clear
7:55 AM 39.2 °F 35.9 °F 10.4 °F 31% 30.10 in 10.0 mi North 4.6 mph - N/A   Clear
8:15 AM 39.2 °F 33.6 °F 10.4 °F 31% 30.11 in 10.0 mi NNW 8.1 mph - N/A   Clear
8:35 AM 41.0 °F 37.1 °F 12.2 °F 31% 30.12 in 10.0 mi NW 5.8 mph - N/A   Clear
8:55 AM 41.0 °F 39.0 °F 12.2 °F 31% 30.13 in 10.0 mi West 3.5 mph - N/A   Clear
9:15 AM 44.6 °F 42.2 °F 14.0 °F 29% 30.13 in 10.0 mi West 4.6 mph - N/A   Clear
9:35 AM 48.2 °F - 12.2 °F 24% 30.14 in 10.0 mi ENE 10.4 mph - N/A   Clear
9:55 AM 55.4 °F - 10.4 °F 17% 30.14 in 10.0 mi NE 13.8 mph 21.9 mph N/A   Clear
10:15 AM 55.4 °F - 10.4 °F 17% 30.15 in 10.0 mi ENE 15.0 mph 20.7 mph N/A   Clear
10:35 AM 55.4 °F - 10.4 °F 17% 30.16 in 10.0 mi ENE 15.0 mph - N/A   Clear
10:55 AM 57.2 °F - 8.6 °F 14% 30.15 in 10.0 mi NE 15.0 mph - N/A   Clear
11:15 AM 57.2 °F - 8.6 °F 14% 30.15 in 10.0 mi ENE 17.3 mph - N/A   Clear
11:35 AM 57.2 °F - 8.6 °F 14% 30.14 in 10.0 mi ENE 15.0 mph 21.9 mph N/A   Clear
11:55 AM 59.0 °F - 8.6 °F 14% 30.14 in 10.0 mi ENE 16.1 mph 20.7 mph N/A   Clear
12:15 PM 59.0 °F - 8.6 °F 14% 30.13 in 10.0 mi ENE 15.0 mph 21.9 mph N/A   Clear
12:35 PM 59.0 °F - 8.6 °F 14% 30.12 in 10.0 mi NE 13.8 mph 21.9 mph N/A   Clear
12:55 PM 59.0 °F - 8.6 °F 14% 30.11 in 10.0 mi ENE 16.1 mph - N/A   Clear
1:15 PM 59.0 °F - 8.6 °F 14% 30.10 in 10.0 mi NE 17.3 mph - N/A   Clear
1:35 PM 60.8 °F - 8.6 °F 13% 30.09 in 10.0 mi NE 16.1 mph 21.9 mph N/A   Clear
1:55 PM 60.8 °F - 6.8 °F 12% 30.09 in 10.0 mi NE 10.4 mph 19.6 mph N/A   Clear
2:15 PM 60.8 °F - 6.8 °F 12% 30.09 in 10.0 mi NE 11.5 mph 19.6 mph N/A   Clear
2:35 PM 60.8 °F - 8.6 °F 13% 30.09 in 10.0 mi NE 9.2 mph - N/A   Clear
2:55 PM 60.8 °F - 8.6 °F 13% 30.09 in 10.0 mi NE 8.1 mph 17.3 mph N/A   Clear
3:15 PM 62.6 °F - 8.6 °F 12% 30.10 in 10.0 mi NE 6.9 mph - N/A   Clear
3:35 PM 62.6 °F - 6.8 °F 11% 30.10 in 10.0 mi NE 12.7 mph - N/A   Clear
4:15 PM 60.8 °F - 8.6 °F 13% 30.11 in 10.0 mi NE 9.2 mph - N/A   Clear
4:35 PM 60.8 °F - 8.6 °F 13% 30.11 in 10.0 mi NE 8.1 mph - N/A   Clear
4:55 PM 59.0 °F - 10.4 °F 15% 30.11 in 10.0 mi NE 9.2 mph - N/A   Clear
5:15 PM 59.0 °F - 8.6 °F 14% 30.11 in 10.0 mi NE 6.9 mph - N/A   Clear
5:35 PM 57.2 °F - 10.4 °F 16% 30.12 in 10.0 mi NNE 3.5 mph - N/A   Clear
5:55 PM 53.6 °F - 8.6 °F 16% 30.12 in 10.0 mi North 6.9 mph - N/A   Clear
6:15 PM 51.8 °F - 6.8 °F 16% 30.12 in 10.0 mi North 6.9 mph - N/A   Clear
6:35 PM 50.0 °F - 8.6 °F 19% 30.12 in 10.0 mi North 8.1 mph - N/A   Clear
6:55 PM 48.2 °F - 6.8 °F 19% 30.13 in 10.0 mi North 9.2 mph - N/A   Clear
7:15 PM 48.2 °F - 6.8 °F 19% 30.13 in 10.0 mi North 10.4 mph - N/A   Clear
7:35 PM 48.2 °F - 6.8 °F 19% 30.14 in 10.0 mi North 9.2 mph - N/A   Clear
7:55 PM 46.4 °F 42.4 °F 6.8 °F 20% 30.14 in 10.0 mi North 8.1 mph - N/A   Clear
8:15 PM 46.4 °F 42.4 °F 8.6 °F 22% 30.15 in 10.0 mi NW 8.1 mph - N/A   Clear
8:35 PM 48.2 °F - 6.8 °F 19% 30.15 in 10.0 mi North 9.2 mph - N/A   Clear
8:55 PM 48.2 °F - 6.8 °F 19% 30.16 in 10.0 mi NNE 9.2 mph - N/A   Clear
9:15 PM 53.6 °F - 6.8 °F 15% 30.16 in 10.0 mi North 9.2 mph - N/A   Clear
9:35 PM 50.0 °F - 6.8 °F 17% 30.18 in 10.0 mi NNW 9.2 mph - N/A   Clear
9:55 PM 51.8 °F - 6.8 °F 16% 30.18 in 10.0 mi North 6.9 mph - N/A   Clear
10:15 PM 51.8 °F - 6.8 °F 16% 30.19 in 10.0 mi North 6.9 mph - N/A   Clear
10:35 PM 50.0 °F - 8.6 °F 19% 30.19 in 10.0 mi North 9.2 mph - N/A   Clear
10:55 PM 50.0 °F - 8.6 °F 19% 30.20 in 10.0 mi North 9.2 mph - N/A   Clear
11:15 PM 50.0 °F - 8.6 °F 19% 30.20 in 10.0 mi North 10.4 mph - N/A   Clear
11:35 PM 50.0 °F - 10.4 °F 20% 30.20 in 10.0 mi North 11.5 mph - N/A   Clear
11:55 PM 50.0 °F - 10.4 °F 20% 30.21 in 10.0 mi NNE 9.2 mph 17.3 mph N/A   Clear